עמוד ראשי
METAR-TAF:

METAR-TAF

שדות תעופה :

Sirri, איראן

קו רוחב: 25-54-34N, קו אורך: 054-32-22E, גובה: 13מטר

תצפית מזג אוויר נוכחית

הדו"ח נערך לפני 9 שעות ו 53דקות, בשעה 15:00 UTC
רוח 12קשר מכיוון מערב/צפון-מערב
טמפרטורת 37 צלסיוס
לחות 64%
לחץ 993 hPa
ראות: 3000מטר
אובך,

METAR: OIBS 211500Z 30012KT 3000 HZ NSC 37/29 Q0993

זמן: 05:23 (00:53 UTC)


TAF: חסר

תצפיות ותחזיות מזג אוויר לגבי יותר מ- 4,000 שדות תעופה ברחבי העולם. דוחות METAR ו- TAF.

התחנות הזמינות מסומנות בנקודות צהובות ואדומות על גבי המפה.

העבר את העכבר לנקודה הצבעונית על מנת לראות את שם התחנה.

לאחר מכן, לחץ כדי לראות את תוכן ואת תחזיות מזג האוויר.

כדי לשנות את המפה: לחץ על הכפתורים הירוקים עם הפלוס השחור כדי להתקרב; על הכפתור הירוק עם המקף כדי להתרחק; או בחיצים הירוקים למפות סמוכות.


METAR-TAF: